KellyUSA Airport, TX

11:52 PM CDT on August 22, 2017 (GMT -0500)
Kelly Air Force Base

Weather History for KSKF - October, 2012

Change the Weather History Date:

Thursday, October 11, 2012

  Actual Average Record
Temperature  
Mean Temperature 80 °F -  
Max Temperature 88 °F 80 °F 92 °F (2015)
Min Temperature 73 °F 60 °F 52 °F (2016)
Cooling Degree Days 15    
Growing Degree Days 30 (Base 50)    
Moisture  
Dew Point 73 °F    
Average Humidity 84    
Maximum Humidity 95    
Minimum Humidity 58    
Precipitation  
Precipitation 0.06 in - - ()
Sea Level Pressure  
Sea Level Pressure 30.06 in    
Wind  
Wind Speed 9 mph (SE)    
Max Wind Speed 20 mph    
Max Gust Speed 25 mph    
Visibility 10 miles    
Events Rain    
Averages and records for this station are not official NWS values.
T = Trace of Precipitation, MM = Missing Value Source: NWS Daily Summary

Daily Weather History Graph

Daily Weather History Graph

Search for Another Location

Airport or City:

Trip Planner

Search our weather history database for the weather conditions in past years. The results will help you decide how hot, cold, wet, or windy it might be!

Date:

Astronomy

Oct. 11, 2012 Rise Set
Actual Time 7:33 AM CDT 7:07 PM CDT
Civil Twilight 7:09 AM CDT 7:31 PM CDT
Nautical Twilight 6:42 AM CDT 7:59 PM CDT
Astronomical Twilight 6:14 AM CDT 8:26 PM CDT
Moon 3:31 AM CDT (10/11) 4:30 PM CDT (10/11)
Length of Visible Light 12h 21m
Length of Day
11h 34m
Waning Crescent, 18% of the Moon is Illuminated
Oct 11
Waning Crescent
Oct 15
New
Oct 21
First Quarter
Oct 29
Full
Nov 6
Last Quarter

Hourly Weather History & Observations

Time (CDT) Temp. Heat Index Dew Point Humidity Pressure Visibility Wind Dir Wind Speed Gust Speed Precip Events Conditions
12:08 AM 73.4 °F - 69.8 °F 88% 30.06 in 10.0 mi East 6.9 mph - N/A   Scattered Clouds
12:09 AM 73.4 °F - 69.8 °F 88% 30.06 in 10.0 mi East 6.9 mph - N/A   Mostly Cloudy
12:16 AM 73.4 °F - 69.8 °F 88% 30.06 in 10.0 mi ESE 8.1 mph - N/A   Mostly Cloudy
12:18 AM 73.4 °F - 69.8 °F 88% 30.06 in 10.0 mi ESE 8.1 mph - N/A   Mostly Cloudy
12:55 AM 74.5 °F - 70.2 °F 86% 30.06 in 10.0 mi ESE 5.8 mph - N/A   Overcast
1:55 AM 74.5 °F - 70.5 °F 87% 30.04 in 10.0 mi East 5.8 mph - N/A   Overcast
2:14 AM 75.2 °F - 71.6 °F 89% 30.04 in 10.0 mi East 6.9 mph - N/A   Overcast
2:55 AM 74.7 °F - 71.2 °F 89% 30.04 in 10.0 mi ESE 4.6 mph - N/A   Overcast
2:56 AM 75.2 °F - 71.6 °F 89% 30.04 in 10.0 mi ESE 4.6 mph - N/A   Overcast
3:34 AM 75.2 °F - 71.6 °F 89% 30.04 in 10.0 mi ESE 5.8 mph - N/A   Overcast
3:55 AM 74.8 °F - 71.8 °F 90% 30.04 in 10.0 mi SE 8.1 mph - N/A   Overcast
4:55 AM 74.8 °F - 72.1 °F 91% 30.04 in 10.0 mi SE 8.1 mph - N/A   Overcast
5:12 AM 75.2 °F - 71.6 °F 89% 30.03 in 10.0 mi SE 6.9 mph - N/A   Overcast
5:21 AM 75.2 °F - 71.6 °F 89% 30.03 in 10.0 mi SE 5.8 mph - N/A   Overcast
5:22 AM 75.2 °F - 71.6 °F 89% 30.03 in 10.0 mi SE 6.9 mph - N/A   Overcast
5:38 AM 75.2 °F - 73.4 °F 94% 30.04 in 10.0 mi SE 9.2 mph - N/A   Overcast
5:40 AM 75.2 °F - 73.4 °F 94% 30.04 in 10.0 mi SE 6.9 mph - N/A   Overcast
5:55 AM 75.0 °F - 72.3 °F 91% 30.04 in 10.0 mi SE 9.2 mph - N/A   Overcast
5:56 AM 75.2 °F - 71.6 °F 89% 30.04 in 10.0 mi SE 10.4 mph - N/A Rain Light Rain
6:04 AM 75.2 °F - 73.4 °F 94% 30.04 in 5.0 mi SSE 8.1 mph - N/A Rain Light Rain
6:05 AM 75.2 °F - 73.4 °F 94% 30.04 in 4.0 mi SE 6.9 mph - N/A Rain Light Rain
6:07 AM 75.2 °F - 73.4 °F 94% 30.04 in 5.0 mi SE 5.8 mph - N/A Rain Light Rain
6:17 AM 75.2 °F - 73.4 °F 94% 30.04 in 10.0 mi SSE 8.1 mph - N/A   Overcast
6:38 AM 75.2 °F - 73.4 °F 94% 30.05 in 10.0 mi SE 6.9 mph - N/A   Overcast
6:47 AM 73.4 °F - 71.6 °F 94% 30.05 in 10.0 mi SE 5.8 mph - N/A   Overcast
6:55 AM 74.3 °F - 72.9 °F 95% 30.05 in 10.0 mi SE 6.9 mph - 0.05 in   Overcast
6:59 AM 75.2 °F - 73.4 °F 94% 30.05 in 10.0 mi SE 5.8 mph - N/A   Overcast
7:37 AM 75.2 °F - 73.4 °F 94% 30.06 in 10.0 mi SE 5.8 mph - N/A   Overcast
7:55 AM 74.7 °F - 73.2 °F 95% 30.06 in 10.0 mi SE 4.6 mph - N/A   Overcast
8:07 AM 75.2 °F - 73.4 °F 94% 30.06 in 10.0 mi SE 8.1 mph - N/A   Overcast
8:37 AM 75.2 °F - 73.4 °F 94% 30.07 in 10.0 mi SE 8.1 mph - N/A   Overcast
8:55 AM 75.6 °F - 73.8 °F 94% 30.08 in 10.0 mi SE 9.2 mph - N/A   Overcast
9:03 AM 75.2 °F - 73.4 °F 94% 30.08 in 10.0 mi SE 8.1 mph - N/A   Overcast
9:04 AM 75.2 °F - 73.4 °F 94% 30.08 in 10.0 mi SE 8.1 mph - N/A   Overcast
9:09 AM 77.0 °F - 73.4 °F 89% 30.09 in 10.0 mi SSE 6.9 mph - N/A   Overcast
9:10 AM 77.0 °F - 73.4 °F 89% 30.09 in 10.0 mi SSE 8.1 mph - N/A   Overcast
9:22 AM 77.0 °F - 73.4 °F 89% 30.09 in 10.0 mi SE 8.1 mph - N/A   Overcast
9:42 AM 77.0 °F - 73.4 °F 89% 30.09 in 10.0 mi South 9.2 mph - N/A   Overcast
9:44 AM 77.0 °F - 73.4 °F 89% 30.09 in 10.0 mi SSE 6.9 mph - N/A   Overcast
9:55 AM 76.6 °F - 74.1 °F 92% 30.10 in 10.0 mi SSE 9.2 mph - N/A   Overcast
9:58 AM 77.0 °F - 73.4 °F 89% 30.10 in 10.0 mi SSE 10.4 mph - N/A   Overcast
10:21 AM 78.8 °F - 73.4 °F 83% 30.10 in 10.0 mi SSE 9.2 mph - N/A   Overcast
10:38 AM 78.8 °F - 73.4 °F 83% 30.10 in 10.0 mi SSE 10.4 mph - N/A   Mostly Cloudy
10:40 AM 78.8 °F - 73.4 °F 83% 30.10 in 10.0 mi SSE 10.4 mph - N/A   Mostly Cloudy
10:44 AM 78.8 °F - 73.4 °F 83% 30.10 in 10.0 mi South 11.5 mph - N/A   Mostly Cloudy
10:46 AM 78.8 °F - 73.4 °F 83% 30.10 in 10.0 mi South 11.5 mph - N/A   Mostly Cloudy
10:47 AM 78.8 °F - 73.4 °F 83% 30.10 in 10.0 mi South 10.4 mph - N/A   Mostly Cloudy
10:49 AM 78.8 °F - 73.4 °F 83% 30.10 in 10.0 mi South 9.2 mph - N/A   Mostly Cloudy
10:55 AM 79.9 °F - 73.4 °F 80% 30.10 in 10.0 mi South 9.2 mph - N/A   Mostly Cloudy
10:56 AM 80.6 °F 85.4 °F 73.4 °F 79% 30.10 in 10.0 mi South 11.5 mph - N/A   Mostly Cloudy
10:59 AM 80.6 °F 85.4 °F 73.4 °F 79% 30.10 in 10.0 mi SSE 11.5 mph - N/A   Scattered Clouds
11:07 AM 80.6 °F 85.4 °F 73.4 °F 79% 30.10 in 10.0 mi SSE 12.7 mph - N/A   Mostly Cloudy
11:17 AM 80.6 °F 85.4 °F 73.4 °F 79% 30.09 in 10.0 mi SSE 15.0 mph - N/A   Scattered Clouds
11:32 AM 82.4 °F 88.2 °F 73.4 °F 74% 30.10 in 10.0 mi South 12.7 mph - N/A   Mostly Cloudy
11:40 AM 82.4 °F 88.2 °F 73.4 °F 74% 30.09 in 10.0 mi SSE 10.4 mph - N/A   Scattered Clouds
11:42 AM 82.4 °F 88.2 °F 73.4 °F 74% 30.09 in 10.0 mi South 9.2 mph - N/A   Mostly Cloudy
11:44 AM 82.4 °F 88.2 °F 73.4 °F 74% 30.09 in 10.0 mi South 9.2 mph - N/A   Scattered Clouds
11:55 AM 81.1 °F 85.6 °F 72.1 °F 74% 30.09 in 10.0 mi SSE 9.2 mph - N/A   Scattered Clouds
12:12 PM 82.4 °F 88.2 °F 73.4 °F 74% 30.09 in 10.0 mi South 12.7 mph - N/A   Mostly Cloudy
12:13 PM 82.4 °F 88.2 °F 73.4 °F 74% 30.09 in 10.0 mi South 13.8 mph - N/A   Scattered Clouds
12:15 PM 84.2 °F 89.6 °F 71.6 °F 66% 30.09 in 10.0 mi SSE 12.7 mph - N/A   Mostly Cloudy
12:27 PM 82.4 °F 87.2 °F 71.6 °F 70% 30.08 in 10.0 mi SSE 13.8 mph - N/A   Mostly Cloudy
12:37 PM 84.2 °F 89.6 °F 71.6 °F 66% 30.08 in 10.0 mi SSE 12.7 mph - N/A   Scattered Clouds
12:55 PM 85.3 °F 91.5 °F 72.3 °F 65% 30.07 in 10.0 mi South 13.8 mph - N/A   Partly Cloudy
1:55 PM 86.7 °F 92.9 °F 72.0 °F 61% 30.04 in 10.0 mi SSE 10.4 mph - N/A   Scattered Clouds
2:12 PM 86.0 °F 91.8 °F 71.6 °F 62% 30.04 in 10.0 mi SSE 12.7 mph - N/A   Light Drizzle
2:20 PM 86.0 °F 91.8 °F 71.6 °F 62% 30.03 in 10.0 mi South 12.7 mph - N/A   Scattered Clouds
2:55 PM 87.1 °F 93.2 °F 71.6 °F 60% 30.02 in 10.0 mi SSE 12.7 mph - N/A   Scattered Clouds
3:55 PM 86.7 °F 91.7 °F 70.3 °F 58% 30.01 in 10.0 mi South 8.1 mph - N/A   Scattered Clouds
4:38 PM 86.0 °F 93.4 °F 73.4 °F 66% 30.01 in 10.0 mi ESE 13.8 mph - N/A   Mostly Cloudy
4:48 PM 84.2 °F 88.4 °F 69.8 °F 62% 30.01 in 10.0 mi ESE 19.6 mph 25.3 mph N/A Rain Light Rain
4:55 PM 81.9 °F 85.8 °F 70.5 °F 68% 30.01 in 10.0 mi ESE 12.7 mph - 0.00 in Rain Light Rain
5:00 PM 80.6 °F 84.6 °F 71.6 °F 74% 30.01 in 10.0 mi SE 12.7 mph 21.9 mph N/A Rain Light Rain
5:12 PM 78.8 °F - 73.4 °F 83% 30.01 in 10.0 mi ESE 13.8 mph - N/A   Overcast
5:17 PM 78.8 °F - 73.4 °F 83% 30.01 in 10.0 mi ESE 13.8 mph - N/A Rain Light Rain
5:24 PM 78.8 °F - 75.2 °F 89% 30.01 in 10.0 mi East 13.8 mph - N/A Rain Light Rain
5:28 PM 78.8 °F - 75.2 °F 89% 30.01 in 10.0 mi East 12.7 mph - N/A   Mostly Cloudy
5:55 PM 78.8 °F - 73.8 °F 84% 30.01 in 10.0 mi East 13.8 mph - 0.01 in   Partly Cloudy
6:39 PM 78.8 °F - 75.2 °F 89% 30.01 in 10.0 mi East 10.4 mph - N/A   Mostly Cloudy
6:41 PM 78.8 °F - 75.2 °F 89% 30.01 in 10.0 mi East 10.4 mph - N/A   Mostly Cloudy
6:42 PM 78.8 °F - 75.2 °F 89% 30.01 in 10.0 mi East 11.5 mph - N/A   Mostly Cloudy
6:55 PM 78.8 °F - 74.7 °F 87% 30.01 in 10.0 mi East 8.1 mph - N/A   Scattered Clouds
7:22 PM 78.8 °F - 75.2 °F 89% 30.02 in 10.0 mi ESE 10.4 mph - N/A   Mostly Cloudy
7:55 PM 79.0 °F - 72.0 °F 79% 30.03 in 10.0 mi SE 12.7 mph - N/A   Mostly Cloudy
8:29 PM 78.8 °F - 71.6 °F 78% 30.04 in 10.0 mi ESE 12.7 mph - N/A   Scattered Clouds
8:55 PM 77.5 °F - 71.2 °F 81% 30.06 in 10.0 mi ESE 12.7 mph 21.9 mph N/A   Clear
9:55 PM 76.3 °F - 70.5 °F 82% 30.08 in 10.0 mi ESE 12.7 mph - N/A   Partly Cloudy
10:06 PM 75.2 °F - 69.8 °F 83% 30.09 in 10.0 mi ESE 8.1 mph - N/A   Mostly Cloudy
10:55 PM 75.4 °F - 70.7 °F 85% 30.10 in 10.0 mi SE 10.4 mph - N/A   Mostly Cloudy
10:58 PM 75.2 °F - 71.6 °F 89% 30.10 in 10.0 mi ESE 9.2 mph - N/A   Scattered Clouds
11:15 PM 75.2 °F - 71.6 °F 89% 30.10 in 10.0 mi ESE 8.1 mph - N/A   Mostly Cloudy
11:16 PM 75.2 °F - 71.6 °F 89% 30.10 in 10.0 mi ESE 8.1 mph - N/A   Scattered Clouds
11:17 PM 75.2 °F - 71.6 °F 89% 30.10 in 10.0 mi ESE 9.2 mph - N/A   Mostly Cloudy
11:22 PM 75.2 °F - 71.6 °F 89% 30.10 in 10.0 mi ESE 8.1 mph - N/A   Mostly Cloudy
11:55 PM 74.8 °F - 71.1 °F 88% 30.09 in 10.0 mi ESE 9.2 mph - N/A   Overcast